Location: Newark
(52.2583°N, 7.1190°W)
Time: 05:30:07
(UTC+00:00)

N. Korean satellite - Pass Details

Date: 21 October 2019
Orbit: 456 x 506 km, 97.2° (Epoch: 12 November)

Event Time Altitude Azimuth Distance (km) Brightness Sun altitude
Rises 18:08:27 0° 193° (SSW) 2,467 10.4 -7.8°
Reaches altitude 10° 18:10:41 10° 206° (SSW) 1,602 9.7 -8.1°
Maximum altitude 18:13:38 26° 265° (W) 942 9.1 -8.6°
Drops below altitude 10° 18:16:38 10° 325° (NW) 1,629 9.6 -9.0°
Sets 18:18:56 0° 338° (NNW) 2,519 10.4 -9.4°
